Station History

Weather Underground - logo

Station Historical Data
Daily Summary for September 10, 2017 Units:  English    Metric   Both
« Previous Day
Next Day »
Daily Weekly Monthly Yearly Custom
  High: Low: Average:
Temperature: TemperatureF °F 67.1 °F 80 °F
Dew Point: DewpointF °F 60.2 °F 64 °F
Humidity: Humidity % 32 % 60 %
Wind Speed: WindSpeedMPH mph 0.0 mph 1 mph
Wind Gust: WindSpeedGustMPH mph - -
Wind:- - SSW
Pressure: PressureIn in 29.77 in -
Precipitation: 0.00 in    
Historical Graphs
 
 
Tabular Data for September 10, 2017
Time Temperature Dew Point Pressure Wind Wind Speed Wind Gust Humidity Rainfall Rate (Hourly)
TemperatureF °F DewpointF °F PressureIn in Calm     Humidity % HourlyPrecipIn in
00:01 73.0 °F 63.4 °F 29.89 in Calm     72 % 0.00 in
00:06 72.7 °F 63.1 °F 29.89 in Calm     72 % 0.00 in
00:11 72.7 °F 63.1 °F 29.89 in Calm     72 % 0.00 in
00:14 72.7 °F 62.8 °F 29.89 in Calm     71 % 0.00 in
00:18 72.9 °F 62.5 °F 29.89 in Calm     70 % 0.00 in
00:23 73.1 °F 62.7 °F 29.89 in Calm     70 % 0.00 in
00:28 73.1 °F 62.7 °F 29.88 in Calm     70 % 0.00 in
00:33 73.2 °F 62.0 °F 29.89 in Calm     68 % 0.00 in
00:38 73.3 °F 62.5 °F 29.88 in SE 1.0 mph   69 % 0.00 in
00:43 73.1 °F 62.7 °F 29.89 in Calm     70 % 0.00 in
00:48 72.7 °F 62.8 °F 29.89 in Calm     71 % 0.00 in
00:53 72.4 °F 62.5 °F 29.89 in Calm     71 % 0.00 in
00:58 72.3 °F 62.8 °F 29.89 in Calm     72 % 0.00 in
01:03 72.0 °F 63.3 °F 29.88 in Calm     74 % 0.00 in
01:08 71.8 °F 63.1 °F 29.88 in Calm     74 % 0.00 in
01:13 71.6 °F 62.9 °F 29.89 in Calm     74 % 0.00 in
01:18 71.5 °F 62.8 °F 29.89 in Calm     74 % 0.00 in
01:23 71.5 °F 62.0 °F 29.89 in ESE 1.2 mph   72 % 0.00 in
01:28 71.9 °F 62.4 °F 29.89 in Calm     72 % 0.00 in
01:33 71.8 °F 62.3 °F 29.89 in Calm     72 % 0.00 in
01:38 71.8 °F 62.7 °F 29.89 in Calm     73 % 0.00 in
01:42 71.6 °F 62.1 °F 29.89 in Calm     72 % 0.00 in
01:47 71.5 °F 61.6 °F 29.88 in ESE 1.2 mph   71 % 0.00 in
01:52 71.3 °F 61.8 °F 29.89 in Calm     72 % 0.00 in
01:57 71.1 °F 61.6 °F 29.89 in Calm     72 % 0.00 in
02:02 70.9 °F 61.4 °F 29.89 in Calm     72 % 0.00 in
02:07 70.7 °F 61.6 °F 29.89 in Calm     73 % 0.00 in
02:12 70.4 °F 61.7 °F 29.89 in Calm     74 % 0.00 in
02:17 70.3 °F 61.6 °F 29.90 in Calm     74 % 0.00 in
02:22 70.3 °F 61.6 °F 29.90 in Calm     74 % 0.00 in
02:27 70.4 °F 62.5 °F 29.89 in Calm     76 % 0.00 in
02:32 70.1 °F 62.6 °F 29.89 in Calm     77 % 0.00 in
02:37 69.8 °F 62.6 °F 29.89 in Calm     78 % 0.00 in
02:42 69.7 °F 62.5 °F 29.89 in Calm     78 % 0.00 in
02:47 69.7 °F 62.5 °F 29.89 in Calm     78 % 0.00 in
02:52 69.9 °F 62.7 °F 29.89 in Calm     78 % 0.00 in
02:57 69.7 °F 62.5 °F 29.89 in Calm     78 % 0.00 in
03:02 69.5 °F 62.3 °F 29.90 in Calm     78 % 0.00 in
03:07 69.4 °F 63.0 °F 29.90 in Calm     80 % 0.00 in
03:12 69.3 °F 62.9 °F 29.89 in Calm     80 % 0.00 in
03:17 69.3 °F 62.9 °F 29.90 in Calm     80 % 0.00 in
03:22 69.3 °F 62.5 °F 29.90 in Calm     79 % 0.00 in
03:27 69.3 °F 62.5 °F 29.90 in Calm     79 % 0.00 in
03:32 69.4 °F 62.2 °F 29.90 in Calm     78 % 0.00 in
03:37 69.4 °F 61.9 °F 29.89 in Calm     77 % 0.00 in
03:42 69.6 °F 62.1 °F 29.90 in Calm     77 % 0.00 in
03:47 69.5 °F 62.0 °F 29.89 in Calm     77 % 0.00 in
03:52 69.4 °F 62.2 °F 29.89 in Calm     78 % 0.00 in
03:57 69.7 °F 62.5 °F 29.89 in Calm     78 % 0.00 in
04:02 69.9 °F 63.1 °F 29.89 in Calm     79 % 0.00 in
04:07 69.8 °F 62.6 °F 29.89 in Calm     78 % 0.00 in
04:12 69.6 °F 62.4 °F 29.90 in Calm     78 % 0.00 in
04:17 69.4 °F 62.6 °F 29.90 in Calm     79 % 0.00 in
04:22 69.4 °F 63.0 °F 29.90 in Calm     80 % 0.00 in
04:28 69.2 °F 62.8 °F 29.90 in Calm     80 % 0.00 in
04:33 69.1 °F 62.7 °F 29.90 in Calm     80 % 0.00 in
04:38 68.8 °F 62.7 °F 29.90 in Calm     81 % 0.00 in
04:43 68.7 °F 63.0 °F 29.90 in Calm     82 % 0.00 in
04:48 68.6 °F 62.5 °F 29.90 in Calm     81 % 0.00 in
04:53 68.6 °F 62.5 °F 29.89 in Calm     81 % 0.00 in
04:58 68.5 °F 62.4 °F 29.89 in Calm     81 % 0.00 in
05:03 68.4 °F 62.3 °F 29.89 in Calm     81 % 0.00 in
05:08 68.4 °F 62.3 °F 29.89 in Calm     81 % 0.00 in
05:13 68.2 °F 62.1 °F 29.89 in Calm     81 % 0.00 in
05:18 68.2 °F 62.1 °F 29.89 in Calm     81 % 0.00 in
05:23 68.1 °F 62.4 °F 29.90 in Calm     82 % 0.00 in
05:28 67.9 °F 62.2 °F 29.90 in Calm     82 % 0.00 in
05:33 67.8 °F 62.1 °F 29.90 in Calm     82 % 0.00 in
05:38 67.6 °F 61.6 °F 29.90 in Calm     81 % 0.00 in
05:43 67.7 °F 61.0 °F 29.90 in Calm     79 % 0.00 in
05:48 68.0 °F 60.9 °F 29.90 in Calm     78 % 0.00 in
05:53 68.0 °F 60.5 °F 29.90 in Calm     77 % 0.00 in
05:58 68.3 °F 60.8 °F 29.90 in Calm     77 % 0.00 in
06:03 68.5 °F 61.0 °F 29.90 in Calm     77 % 0.00 in
06:08 68.4 °F 60.9 °F 29.90 in Calm     77 % 0.00 in
06:13 68.4 °F 60.9 °F 29.90 in Calm     77 % 0.00 in
06:18 68.4 °F 60.5 °F 29.91 in Calm     76 % 0.00 in
06:23 68.5 °F 60.6 °F 29.91 in Calm     76 % 0.00 in
06:28 68.6 °F 60.4 °F 29.91 in Calm     75 % 0.00 in
06:33 68.6 °F 60.7 °F 29.91 in Calm     76 % 0.00 in
06:38 68.4 °F 60.2 °F 29.91 in Calm     75 % 0.00 in
06:43 68.4 °F 61.6 °F 29.91 in Calm     79 % 0.00 in
06:44 68.4 °F 62.0 °F 29.91 in Calm     80 % 0.00 in
06:49 68.1 °F 61.3 °F 29.91 in Calm     79 % 0.00 in
06:54 67.7 °F 60.6 °F 29.91 in Calm     78 % 0.00 in
06:59 67.5 °F 61.1 °F 29.92 in Calm     80 % 0.00 in
07:04 67.2 °F 60.5 °F 29.92 in Calm     79 % 0.00 in
07:09 67.1 °F 60.7 °F 29.92 in Calm     80 % 0.00 in
07:14 67.1 °F 60.7 °F 29.92 in Calm     80 % 0.00 in
07:19 67.2 °F 60.5 °F 29.92 in Calm     79 % 0.00 in
07:24 67.5 °F 60.8 °F 29.93 in Calm     79 % 0.00 in
07:29 67.8 °F 61.0 °F 29.92 in SE 1.2 mph 1.2 mph 79 % 0.00 in
07:34 68.2 °F 61.1 °F 29.92 in Calm     78 % 0.00 in
07:39 68.7 °F 61.2 °F 29.93 in SSE 1.2 mph   77 % 0.00 in
07:44 69.2 °F 60.9 °F 29.93 in SE 1.2 mph   75 % 0.00 in
07:49 69.7 °F 60.7 °F 29.93 in East 2.3 mph 2.3 mph 73 % 0.00 in
07:54 70.2 °F 61.1 °F 29.93 in ENE 3.5 mph 3.5 mph 73 % 0.00 in
07:59 70.9 °F 61.8 °F 29.93 in SE 2.3 mph 2.3 mph 73 % 0.00 in
08:04 71.7 °F 62.2 °F 29.93 in ESE 1.2 mph 1.2 mph 72 % 0.00 in
08:09 72.5 °F 62.6 °F 29.93 in East 2.3 mph 2.3 mph 71 % 0.00 in
08:14 73.1 °F 62.7 °F 29.93 in SSE 3.5 mph 3.5 mph 70 % 0.00 in
08:19 73.8 °F 63.4 °F 29.93 in East 2.3 mph 2.3 mph 70 % 0.00 in
08:24 74.5 °F 63.7 °F 29.93 in East 1.2 mph 1.2 mph 69 % 0.00 in
08:29 75.1 °F 63.8 °F 29.93 in SE 2.3 mph 2.3 mph 68 % 0.00 in
08:34 75.7 °F 64.0 °F 29.93 in NE 1.2 mph 1.3 mph 67 % 0.00 in
08:39 76.0 °F 64.2 °F 29.93 in ESE 3.5 mph 3.5 mph 67 % 0.00 in
08:44 76.5 °F 64.3 °F 29.93 in SSW 2.3 mph 2.3 mph 66 % 0.00 in
08:49 77.2 °F 64.5 °F 29.93 in SSE 3.5 mph 3.5 mph 65 % 0.00 in
08:54 77.6 °F 64.5 °F 29.93 in ESE 3.5 mph 3.5 mph 64 % 0.00 in
08:59 77.8 °F 64.2 °F 29.93 in SE 3.5 mph 3.5 mph 63 % 0.00 in
09:04 78.2 °F 64.1 °F 29.93 in SSE 3.0 mph 3.0 mph 62 % 0.00 in
09:09 78.6 °F 64.5 °F 29.93 in SE 3.5 mph 3.5 mph 62 % 0.00 in
09:14 79.1 °F 64.5 °F 29.93 in East 2.3 mph 2.3 mph 61 % 0.00 in
09:19 79.7 °F 65.5 °F 29.93 in SSE 2.0 mph 2.3 mph 62 % 0.00 in
09:24 80.0 °F 64.4 °F 29.93 in South 3.0 mph 3.0 mph 59 % 0.00 in
09:29 80.5 °F 64.4 °F 29.93 in ESE 3.5 mph 3.5 mph 58 % 0.00 in
09:34 81.0 °F 64.3 °F 29.93 in East 4.6 mph 4.6 mph 57 % 0.00 in
09:39 81.3 °F 64.1 °F 29.93 in SE 3.5 mph 3.5 mph 56 % 0.00 in
09:44 81.5 °F 64.3 °F 29.93 in NE 4.6 mph 4.6 mph 56 % 0.00 in
09:49 81.9 °F 64.7 °F 29.93 in SE 2.3 mph 2.3 mph 56 % 0.00 in
09:54 82.1 °F 64.3 °F 29.93 in SSE 3.5 mph 3.5 mph 55 % 0.00 in
10:00 82.5 °F 65.7 °F 29.93 in East 3.5 mph 3.5 mph 57 % 0.00 in
10:05 82.8 °F 65.0 °F 29.93 in SSW 2.3 mph 2.3 mph 55 % 0.00 in
10:10 83.2 °F 64.8 °F 29.92 in SSE 3.5 mph 3.5 mph 54 % 0.00 in
10:15 83.4 °F 65.0 °F 29.92 in SSE 3.5 mph 3.5 mph 54 % 0.00 in
10:20 83.4 °F 64.5 °F 29.92 in SE 2.3 mph 2.3 mph 53 % 0.00 in
10:25 83.6 °F 64.7 °F 29.92 in SE 5.0 mph 5.0 mph 53 % 0.00 in
10:30 83.7 °F 65.3 °F 29.92 in ENE 3.5 mph 3.5 mph 54 % 0.00 in
10:35 84.1 °F 65.7 °F 29.92 in East 3.0 mph 3.0 mph 54 % 0.00 in
10:40 84.1 °F 65.1 °F 29.92 in ESE 2.3 mph 2.3 mph 53 % 0.00 in
10:45 84.2 °F 66.3 °F 29.92 in ESE 3.0 mph 3.0 mph 55 % 0.00 in
10:50 84.3 °F 65.3 °F 29.92 in SE 3.5 mph 3.5 mph 53 % 0.00 in
10:55 84.6 °F 66.1 °F 29.92 in South 1.2 mph 1.2 mph 54 % 0.00 in
11:00 85.2 °F 65.6 °F 29.91 in SSW 2.3 mph 2.3 mph 52 % 0.00 in
11:05 85.6 °F 67.0 °F 29.91 in East 2.3 mph 2.3 mph 54 % 0.00 in
11:10 85.7 °F 66.0 °F 29.91 in SSE 2.3 mph 2.3 mph 52 % 0.00 in
11:15 85.9 °F 66.8 °F 29.91 in SE 1.2 mph 1.2 mph 53 % 0.00 in
11:20 86.3 °F 66.6 °F 29.90 in SSE 3.5 mph 3.5 mph 52 % 0.00 in
11:25 86.6 °F 66.3 °F 29.90 in SE 1.0 mph 1.0 mph 51 % 0.00 in
11:30 87.4 °F 67.1 °F 29.90 in South 2.3 mph 2.3 mph 51 % 0.00 in
11:35 88.1 °F 67.1 °F 29.90 in SSE 1.2 mph 1.2 mph 50 % 0.00 in
11:40 88.8 °F 68.3 °F 29.90 in SSW 1.2 mph   51 % 0.00 in
11:45 89.2 °F 66.9 °F 29.90 in SE 3.5 mph 3.5 mph 48 % 0.00 in
11:50 89.4 °F 67.1 °F 29.90 in SW 1.2 mph   48 % 0.00 in
11:55 89.7 °F 66.8 °F 29.89 in East 1.2 mph 1.2 mph 47 % 0.00 in
12:00 89.9 °F 66.3 °F 29.89 in SSW 3.5 mph 3.5 mph 46 % 0.00 in
12:05 90.0 °F 67.7 °F 29.89 in SE 2.0 mph 2.0 mph 48 % 0.00 in
12:10 90.6 °F 66.3 °F 29.89 in SE 1.2 mph 1.2 mph 45 % 0.00 in
12:15 90.9 °F 66.0 °F 29.89 in NNW 1.2 mph 1.2 mph 44 % 0.00 in
12:20 90.9 °F 66.0 °F 29.89 in WNW 1.2 mph 1.2 mph 44 % 0.00 in
12:25 90.8 °F 67.2 °F 29.88 in NW 1.2 mph 1.2 mph 46 % 0.00 in
12:30 91.3 °F 65.0 °F 29.88 in NW 2.0 mph 2.0 mph 42 % 0.00 in
12:35 91.3 °F 64.3 °F 29.88 in WNW 2.3 mph 2.3 mph 41 % 0.00 in
12:40 91.9 °F 66.9 °F 29.88 in South 2.3 mph 2.3 mph 44 % 0.00 in
12:45 92.3 °F 67.2 °F 29.87 in Calm   0.1 mph 44 % 0.00 in
12:50 92.3 °F 65.2 °F 29.87 in East 2.0 mph 2.0 mph 41 % 0.00 in
12:55 92.6 °F 66.8 °F 29.87 in WNW 2.0 mph 2.0 mph 43 % 0.00 in
13:00 92.7 °F 65.6 °F 29.87 in ESE 2.3 mph 2.3 mph 41 % 0.00 in
13:06 93.1 °F 65.2 °F 29.87 in WNW 2.3 mph 2.3 mph 40 % 0.00 in
13:11 93.5 °F 66.3 °F 29.87 in North 2.3 mph 2.3 mph 41 % 0.00 in
13:16 93.7 °F 66.4 °F 29.86 in WNW 1.2 mph   41 % 0.00 in
13:21 93.9 °F 62.9 °F 29.86 in SE 1.2 mph 1.2 mph 36 % 0.00 in
13:26 94.1 °F 64.6 °F 29.86 in SSE 1.2 mph 1.2 mph 38 % 0.00 in
13:31 94.5 °F 62.6 °F 29.86 in North 2.0 mph 2.0 mph 35 % 0.00 in
13:36 94.5 °F 65.0 °F 29.86 in NNW 1.2 mph 1.2 mph 38 % 0.00 in
13:41 93.8 °F 65.1 °F 29.85 in WNW 1.2 mph 1.2 mph 39 % 0.00 in
13:46 93.8 °F 62.8 °F 29.85 in North 2.3 mph 2.3 mph 36 % 0.00 in
13:51 93.7 °F 63.5 °F 29.85 in NW 1.2 mph 1.2 mph 37 % 0.00 in
13:56 93.6 °F 64.9 °F 29.85 in NW 1.0 mph   39 % 0.00 in
14:01 93.8 °F 62.8 °F 29.84 in Calm     36 % 0.00 in
14:06 94.0 °F 63.0 °F 29.84 in Calm     36 % 0.00 in
14:11 94.0 °F 63.8 °F 29.83 in NW 1.2 mph 1.2 mph 37 % 0.00 in
14:16 94.2 °F 63.9 °F 29.83 in Calm     37 % 0.00 in
14:21 94.4 °F 62.5 °F 29.83 in NW 1.2 mph   35 % 0.00 in
14:26 94.6 °F 64.3 °F 29.83 in West 1.2 mph 1.2 mph 37 % 0.00 in
14:31 94.5 °F 61.0 °F 29.83 in NW 3.5 mph 3.5 mph 33 % 0.00 in
14:36 94.8 °F 62.1 °F 29.83 in NNW 2.3 mph 2.3 mph 34 % 0.00 in
14:41 94.8 °F 62.1 °F 29.82 in NW 1.2 mph 1.2 mph 34 % 0.00 in
14:46 95.1 °F 63.1 °F 29.82 in NW 3.5 mph 3.5 mph 35 % 0.00 in
14:51 95.5 °F 64.3 °F 29.82 in NNW 2.3 mph 2.3 mph 36 % 0.00 in
14:56 95.8 °F 62.1 °F 29.82 in NNW 2.3 mph 2.3 mph 33 % 0.00 in
15:01 95.6 °F 61.9 °F 29.82 in NW 3.0 mph 3.0 mph 33 % 0.00 in
15:06 95.2 °F 62.4 °F 29.81 in West 3.5 mph 3.5 mph 34 % 0.00 in
15:11 95.2 °F 61.6 °F 29.81 in NW 3.5 mph 3.5 mph 33 % 0.00 in
15:16 94.9 °F 60.4 °F 29.81 in NNW 3.5 mph 3.5 mph 32 % 0.00 in
15:21 95.1 °F 61.5 °F 29.81 in NNW 3.5 mph 3.5 mph 33 % 0.00 in
15:26 94.5 °F 61.8 °F 29.81 in NW 3.5 mph 3.5 mph 34 % 0.00 in
15:31 94.4 °F 62.5 °F 29.81 in WNW 4.0 mph 4.0 mph 35 % 0.00 in
15:36 94.3 °F 63.2 °F 29.81 in NW 3.5 mph 3.5 mph 36 % 0.00 in
15:41 94.2 °F 61.5 °F 29.81 in NNE 4.0 mph 4.0 mph 34 % 0.00 in
15:46 94.0 °F 61.4 °F 29.80 in West 3.5 mph 3.5 mph 34 % 0.00 in
15:51 94.2 °F 62.4 °F 29.80 in NW 3.5 mph 3.5 mph 35 % 0.00 in
15:56 94.0 °F 62.2 °F 29.80 in NW 3.5 mph 3.5 mph 35 % 0.00 in
16:01 94.1 °F 63.1 °F 29.80 in NNW 4.0 mph 4.0 mph 36 % 0.00 in
16:06 94.2 °F 63.9 °F 29.80 in NW 3.5 mph 3.5 mph 37 % 0.00 in
16:11 93.9 °F 63.7 °F 29.80 in NW 3.5 mph 3.5 mph 37 % 0.00 in
16:16 93.6 °F 63.4 °F 29.79 in WNW 2.3 mph 2.3 mph 37 % 0.00 in
16:21 93.5 °F 64.1 °F 29.79 in WNW 2.3 mph 2.3 mph 38 % 0.00 in
16:26 93.6 °F 63.4 °F 29.79 in NW 3.5 mph 3.5 mph 37 % 0.00 in
16:31 93.3 °F 62.4 °F 29.79 in West 5.8 mph 5.8 mph 36 % 0.00 in
16:36 93.0 °F 63.6 °F 29.79 in NW 3.5 mph 3.5 mph 38 % 0.00 in
16:41 92.8 °F 64.9 °F 29.79 in NW 2.3 mph 2.3 mph 40 % 0.00 in
16:46 92.6 °F 64.0 °F 29.79 in NNW 3.5 mph 3.5 mph 39 % 0.00 in
16:51 92.3 °F 64.5 °F 29.79 in NW 1.2 mph 1.2 mph 40 % 0.00 in
16:56 92.0 °F 63.5 °F 29.79 in NW 3.5 mph 3.5 mph 39 % 0.00 in
17:01 91.7 °F 64.0 °F 29.79 in North 1.2 mph 1.2 mph 40 % 0.00 in
17:07 91.6 °F 64.6 °F 29.79 in NW 1.0 mph   41 % 0.00 in
17:12 91.5 °F 65.2 °F 29.79 in NNW 2.3 mph 2.3 mph 42 % 0.00 in
17:17 91.3 °F 65.0 °F 29.79 in NW 1.2 mph 1.2 mph 42 % 0.00 in
17:22 91.2 °F 64.9 °F 29.78 in West 1.2 mph   42 % 0.00 in
17:27 90.9 °F 65.3 °F 29.78 in West 1.2 mph   43 % 0.00 in
17:32 90.6 °F 65.0 °F 29.78 in West 1.2 mph 1.2 mph 43 % 0.00 in
17:37 90.4 °F 65.5 °F 29.78 in Calm     44 % 0.00 in
17:42 90.2 °F 65.3 °F 29.78 in Calm     44 % 0.00 in
17:47 89.9 °F 65.7 °F 29.78 in Calm     45 % 0.00 in
17:52 89.6 °F 66.7 °F 29.78 in Calm     47 % 0.00 in
17:57 89.3 °F 65.8 °F 29.78 in West 1.2 mph 1.2 mph 46 % 0.00 in
18:02 89.2 °F 65.7 °F 29.78 in North 2.3 mph 2.3 mph 46 % 0.00 in
18:07 89.2 °F 65.1 °F 29.78 in NNW 1.2 mph 1.2 mph 45 % 0.00 in
18:12 89.0 °F 64.9 °F 29.78 in NNW 1.2 mph 1.2 mph 45 % 0.00 in
18:17 88.9 °F 65.4 °F 29.78 in Calm     46 % 0.00 in
18:22 88.9 °F 64.8 °F 29.77 in NW 1.2 mph 1.2 mph 45 % 0.00 in
18:27 89.0 °F 64.3 °F 29.77 in NW 1.2 mph 1.2 mph 44 % 0.00 in
18:32 89.0 °F 64.9 °F 29.77 in NW 1.2 mph 1.2 mph 45 % 0.00 in
18:37 88.9 °F 64.8 °F 29.77 in Calm     45 % 0.00 in
18:42 88.7 °F 64.6 °F 29.77 in Calm     45 % 0.00 in
18:47 88.6 °F 63.9 °F 29.77 in Calm     44 % 0.00 in
18:52 88.5 °F 64.4 °F 29.77 in Calm     45 % 0.00 in
18:57 88.1 °F 65.3 °F 29.77 in Calm     47 % 0.00 in
19:02 87.6 °F 66.1 °F 29.77 in Calm     49 % 0.00 in
19:07 86.9 °F 66.0 °F 29.77 in Calm     50 % 0.00 in
19:12 86.3 °F 64.9 °F 29.78 in Calm     49 % 0.00 in
19:17 85.7 °F 64.9 °F 29.78 in Calm     50 % 0.00 in
19:22 85.2 °F 65.0 °F 29.78 in Calm     51 % 0.00 in
19:27 84.8 °F 66.3 °F 29.78 in Calm     54 % 0.00 in
19:32 84.5 °F 64.9 °F 29.78 in Calm     52 % 0.00 in
19:37 84.6 °F 65.6 °F 29.78 in Calm     53 % 0.00 in
19:42 84.3 °F 65.8 °F 29.78 in Calm     54 % 0.00 in
19:47 84.0 °F 65.0 °F 29.78 in Calm     53 % 0.00 in
19:52 83.9 °F 68.0 °F 29.78 in Calm     59 % 0.00 in
19:57 83.7 °F 66.3 °F 29.78 in Calm     56 % 0.00 in
20:02 83.7 °F 66.3 °F 29.78 in Calm     56 % 0.00 in
20:07 83.5 °F 67.2 °F 29.78 in Calm     58 % 0.00 in
20:13 83.3 °F 66.5 °F 29.78 in Calm     57 % 0.00 in
20:18 83.0 °F 66.7 °F 29.78 in Calm     58 % 0.00 in
20:19 83.0 °F 66.7 °F 29.78 in Calm     58 % 0.00 in
20:20 83.0 °F 66.7 °F 29.78 in Calm     58 % 0.00 in
20:24 82.7 °F 66.9 °F 29.78 in Calm     59 % 0.00 in
20:26 82.4 °F 67.6 °F 29.78 in Calm     61 % 0.00 in
20:28 82.2 °F 67.4 °F 29.78 in Calm     61 % 0.00 in
20:31 81.9 °F 68.1 °F 29.78 in Calm     63 % 0.00 in
20:41 80.8 °F 67.0 °F 29.78 in Calm     63 % 0.00 in
20:46 80.5 °F 66.7 °F 29.79 in Calm     63 % 0.00 in
20:51 80.3 °F 67.0 °F 29.79 in Calm     64 % 0.00 in
20:56 80.0 °F 67.6 °F 29.78 in Calm     66 % 0.00 in
21:01 79.7 °F 67.3 °F 29.79 in Calm     66 % 0.00 in
21:06 79.6 °F 67.7 °F 29.79 in Calm     67 % 0.00 in
21:11 79.7 °F 67.8 °F 29.79 in Calm     67 % 0.00 in
21:16 79.3 °F 68.2 °F 29.79 in Calm     69 % 0.00 in
21:21 78.6 °F 68.0 °F 29.79 in Calm     70 % 0.00 in
21:26 78.2 °F 68.0 °F 29.79 in Calm     71 % 0.00 in
21:31 77.9 °F 68.1 °F 29.79 in Calm     72 % 0.00 in
21:36 77.8 °F 68.0 °F 29.79 in SW 1.2 mph 1.2 mph 72 % 0.00 in
21:41 78.1 °F 67.9 °F 29.79 in Calm     71 % 0.00 in
21:46 78.1 °F 67.9 °F 29.79 in Calm     71 % 0.00 in
21:51 77.9 °F 68.5 °F 29.79 in Calm     73 % 0.00 in
21:56 77.4 °F 68.1 °F 29.79 in Calm     73 % 0.00 in
22:01 77.3 °F 68.4 °F 29.79 in Calm     74 % 0.00 in
22:06 77.0 °F 67.7 °F 29.79 in Calm     73 % 0.00 in
22:07 76.9 °F 67.6 °F 29.79 in Calm     73 % 0.00 in
22:12 76.8 °F 67.9 °F 29.79 in Calm     74 % 0.00 in
22:17 76.7 °F 67.4 °F 29.79 in Calm     73 % 0.00 in
22:22 76.7 °F 67.0 °F 29.79 in Calm     72 % 0.00 in
22:27 76.6 °F 67.3 °F 29.79 in Calm     73 % 0.00 in
22:32 76.6 °F 67.7 °F 29.79 in Calm     74 % 0.00 in
22:37 76.5 °F 67.6 °F 29.78 in Calm     74 % 0.00 in
22:42 76.5 °F 67.6 °F 29.78 in Calm     74 % 0.00 in
22:47 76.6 °F 67.3 °F 29.78 in East 2.3 mph 2.3 mph 73 % 0.00 in
22:52 76.8 °F 67.1 °F 29.78 in Calm     72 % 0.00 in
22:57 76.7 °F 67.0 °F 29.78 in Calm     72 % 0.00 in
23:02 76.3 °F 67.0 °F 29.77 in Calm     73 % 0.00 in
23:07 75.9 °F 66.6 °F 29.77 in Calm     73 % 0.00 in
23:12 75.7 °F 66.4 °F 29.78 in Calm     73 % 0.00 in
23:17 75.6 °F 66.3 °F 29.78 in Calm     73 % 0.00 in
23:22 75.7 °F 66.0 °F 29.78 in Calm     72 % 0.00 in
23:28 75.6 °F 66.3 °F 29.78 in Calm     73 % 0.00 in
23:33 75.3 °F 66.0 °F 29.79 in SE 1.2 mph 1.2 mph 73 % 0.00 in
23:38 74.9 °F 66.1 °F 29.79 in Calm     74 % 0.00 in
23:43 74.7 °F 65.5 °F 29.79 in Calm     73 % 0.00 in
23:48 74.7 °F 65.1 °F 29.79 in Calm     72 % 0.00 in
23:53 74.7 °F 65.1 °F 29.79 in SSE 1.2 mph   72 % 0.00 in
23:58 74.9 °F 64.9 °F 29.79 in ESE 1.2 mph   71 % 0.00 in
Park Place, Exeter, Tulare County, California, USA
Compliments of Weather Underground - 2.75 mb